Hourly Data Report for October 22, 2014

All times are specified in Local Standard Time (LST). Add 1 hour to adjust for Daylight Saving Time where and when it is observed.

BATHURST A
NEW BRUNSWICK

47°37'47.000" N
65°44'20.000" W
58.80 m
8100505
71574
ZBF

Download Data

Hourly Data (October 2014)
Hourly Data Report for October 22, 2014
Temp Definition
°C
Dew Point Temp Definition
°C
Rel Hum Definition
%
Wind Dir Definition
10's deg

Wind Spd Definition
km/h
Visibility Definition
km
Stn Press Definition
kPa
Hmdx Definition


Wind Chill Definition


Weather Definition


TIME
00:00 Legend Double Dagger 3.5 0.4 80 33 5 24.1 101.99     LegendNANA
01:00 Legend Double Dagger 3.1 0.8 85 33 7 24.1 102.07     LegendNANA
02:00 Legend Double Dagger 3.1 1.3 88 34 7 24.1 102.13     Mostly Cloudy
03:00 Legend Double Dagger 3.1 1.9 92 36 6 24.1 102.14     LegendNANA
04:00 Legend Double Dagger 2.2 1.6 96 1 6 24.1 102.19     LegendNANA
05:00 Legend Double Dagger 4.1 2.9 92 35 7 24.1 102.20     Mostly Cloudy
06:00 Legend Double Dagger 4.9 3.4 90 35 5 24.1 102.24     LegendNANA
07:00 Legend Double Dagger 4.8 3.2 89 35 4 24.1 102.33     LegendNANA
08:00 Legend Double Dagger 4.8 2.7 86 36 5 24.1 102.40     Mostly Cloudy
09:00 Legend Double Dagger 5.9 3.1 82 35 4 24.1 102.45     LegendNANA
10:00 Legend Double Dagger 7.0 3.1 76 6 12 24.1 102.46     LegendNANA
11:00 Legend Double Dagger 8.4 3.5 71 4 16 24.1 102.48     Mainly Clear
12:00 Legend Double Dagger 8.7 4.2 73 6 16 24.1 102.44     LegendNANA
13:00 Legend Double Dagger 8.4 4.1 74 3 18 24.1 102.41     LegendNANA
14:00 Legend Double Dagger 7.7 3.9 77 4 16 24.1 102.41     Mostly Cloudy
15:00 Legend Double Dagger 7.3 4.1 80 5 14 24.1 102.39     LegendNANA
16:00 Legend Double Dagger 7.0 4.0 81 6 12 24.1 102.34     LegendNANA
17:00 Legend Double Dagger 6.4 3.9 84 6 13 24.1 102.39     Cloudy
18:00 Legend Double Dagger 5.9 3.2 83 6 9 24.1 102.40     LegendNANA
19:00 Legend Double Dagger 5.8 3.5 85 6 9 24.1 102.34     LegendNANA
20:00 Legend Double Dagger 5.7 3.4 85 6 12 24.1 102.33     Cloudy
21:00 Legend Double Dagger 5.6 2.3 79 7 16 24.1 102.29     LegendNANA
22:00 Legend Double Dagger 5.6 3.1 84 6 13 24.1 102.28     LegendNANA
23:00 Legend Double Dagger 5.7 3.4 85 6 16 24.1 102.27     Mostly Cloudy

Notes on Data Quality.

Legend

  • E = Estimated
  • M = Missing
  • NA = Not Available
  • ‡ = Partner data that is not subject to review by the National Climate Archives
Date modified: